Tracking 29892 objects as of 21-Nov-2024
HD Live streaming from Space Station
objects crossing your sky now

CZ-2C DEB

Track CZ-2C DEB now!
10-day predictions


NORAD ID: 43373
Int'l Code: 2003-061C
Perigee: 248.5 km
Apogee: 22,241.0 km
Inclination: 18.8 °
Period: 387.8 minutes
Semi major axis: 17615 km
RCS: Unknown
Launch date: December 29, 2003
Source: People's Republic of China (PRC)
Launch site: Xichang Space Center, China (XSC)

Note: This is SATELLITE DEBRIS
Your satellite tracking list
Your tracking list is empty




NASA's NSSDC Master Catalog

Two Line Element Set (TLE):
1 43373U 03061C   24325.28754930  .00011157  00000-0  11983-2 0  9993
2 43373  18.8371  40.8740 6242300  65.1838 345.8352  3.71323733207585
Source of the keplerian elements: AFSPC